Hourly Data Report for September 03, 2017

All times are specified in Local Standard Time (LST). Add 1 hour to adjust for Daylight Saving Time where and when it is observed.

RESOLUTE BAY A
NUNAVUT

74°43'01.000" N
94°58'10.000" W
67.70 m
2403498
71924
YRB

Download Data

Hourly Data (September 2017)
Hourly Data Report for September 3, 2017
Temp Definition
°C
Dew Point Temp Definition
°C
Rel Hum Definition
%
Wind Dir Definition
10's deg

Wind Spd Definition
km/h
Visibility Definition
km
Stn Press Definition
kPa
Hmdx Definition


Wind Chill Definition


Weather Definition


TIME
00:00 Legend Double Dagger -0.9 -1.3 97 30 14 2.8 100.48   -5 Fog
01:00 Legend Double Dagger -1.0 -1.4 97 30 19 3.2 100.48   -6 Snow,Fog
02:00 Legend Double Dagger -1.1 -1.6 96 30 18 3.6 100.48   -6 Snow,Fog
03:00 Legend Double Dagger -1.1 -1.9 94 30 18 4.0 100.49   -6 Snow,Fog
04:00 Legend Double Dagger -1.3 -2.0 95 31 19 4.0 100.48   -7 Snow,Fog
05:00 Legend Double Dagger -1.3 -2.3 93 30 19 12.9 100.48   -7 LegendNANA
06:00 Legend Double Dagger -1.3 -2.6 91 31 14 19.3 100.47   -6 Cloudy
07:00 Legend Double Dagger -1.3 -2.4 92 30 17 19.3 100.48   -6 LegendNANA
08:00 Legend Double Dagger -1.3 -2.0 95 30 15 16.1 100.49   -6 Snow Showers
09:00 Legend Double Dagger -1.1 -1.8 95 30 16 24.1 100.47   -6 Snow Showers
10:00 Legend Double Dagger -0.9 -1.8 94 29 16 24.1 100.48   -6 Snow Showers
11:00 Legend Double Dagger -0.9 -3.5 83 32 21 24.1 100.49   -7 LegendNANA
12:00 Legend Double Dagger -1.1 -4.2 79 31 20 24.1 100.50   -7 Cloudy
13:00 Legend Double Dagger -0.9 -3.8 81 32 18 24.1 100.54   -6 LegendNANA
14:00 Legend Double Dagger -0.9 -3.6 82 32 19 24.1 100.57   -6 Snow Showers
15:00 Legend Double Dagger -0.9 -3.2 84 32 21 24.1 100.60   -7 Snow Showers
16:00 Legend Double Dagger -0.8 -2.2 90 30 19 24.1 100.62   -6 Snow Showers
17:00 Legend Double Dagger -1.1 -3.7 82 30 22 24.1 100.63   -7 Snow Showers
18:00 Legend Double Dagger -1.4 -3.1 88 31 16 24.1 100.64   -6 Snow Showers
19:00 Legend Double Dagger -1.4 -2.2 94 31 23 16.1 100.65   -7 Snow Showers
20:00 Legend Double Dagger -1.3 -2.2 94 32 26 16.1 100.65   -8 Snow Showers
21:00 Legend Double Dagger -1.3 -2.0 95 31 21 16.1 100.66   -7 Snow Showers
22:00 Legend Double Dagger -1.0 -2.0 93 33 15 24.1 100.68   -6 Snow Showers
23:00 Legend Double Dagger -1.1 -2.2 92 32 15 16.1 100.68   -6 Snow Showers

Notes on Data Quality.

Legend

  • E = Estimated
  • M = Missing
  • NA = Not Available
  • ‡ = Partner data that is not subject to review by the National Climate Archives
Date modified: